Location: Morosaglia
(42.4360°N, 9.3069°E)
Time: 18:25:06
(UTC+00:00)

Shenzhou-11 Module - Pass Details

Date: 07 June 2020
Orbit: 265 x 286 km, 42.8° (Epoch: 03 July)

Event Time Altitude Azimuth Distance (km) Brightness Sun altitude
Exits shadow 02:24:54 17° 278° (W) 773 3.3 -12.3°
Maximum altitude 02:26:34 84° 6° (N) 270 1.3 -12.1°
Drops below altitude 10° 02:28:57 10° 95° (E) 1,067 4.9 -11.8°
Sets 02:30:51 0° 96° (E) 1,878 6.1 -11.5°
